Weather History for KTOI - October, 2011

Change the Weather History Date:

Monday, October 31, 2011

  Actual Average Record
Temperature  
Mean Temperature 52 °F 60 °F  
Max Temperature 71 °F 74 °F 84 °F (2000)
Min Temperature 33 °F 47 °F 33 °F (2011)
Degree Days  
Heating Degree Days 13 6  
Month to date heating degree days 151 94  
Since 1 July heating degree days 156 98  
Cooling Degree Days 0 2  
Month to date cooling degree days 31 99  
Year to date cooling degree days 2241 2047  
Growing Degree Days 2 (Base 50)    
Moisture  
Dew Point 38 °F    
Average Humidity 64    
Maximum Humidity 100    
Minimum Humidity 28    
Precipitation  
Precipitation 0.00 in 0.11 in 0.76 in (1997)
Month to date precipitation 1.05 3.23  
Year to date precipitation 29.31 45.14  
Snow  
Snow 0.00 in - - ()
Month to date snowfall 0.0  
Since 1 July snowfall 0.0  
Since 1 September snowfall 0.0  
Snow Depth 0.00 in    
Sea Level Pressure  
Sea Level Pressure 30.19 in    
Wind  
Wind Speed 3 mph (North)    
Max Wind Speed 13 mph    
Max Gust Speed 16 mph    
Visibility 10 miles    
Events      
T = Trace of Precipitation, MM = Missing Value Source: NWS Daily Summary

Daily Weather History Graph

Daily Weather History Graph

Search for Another Location

Airport or City:

Trip Planner

Search our weather history database for the weather conditions in past years. The results will help you decide how hot, cold, wet, or windy it might be!

Date:

Astronomy

Oct. 31, 2011 Rise Set
Actual Time 6:59 AM CDT 5:55 PM CDT
Civil Twilight 6:34 AM CDT 6:20 PM CDT
Nautical Twilight 6:05 AM CDT 6:49 PM CDT
Astronomical Twilight 5:36 AM CDT 7:17 PM CDT
Moon 11:58 AM CDT (10/31) 10:37 PM CDT (10/31)
Length of Visible Light 11h 46m
Length of Day
10h 56m
Waxing Crescent, 30% of the Moon is Illuminated
Oct 31
Waxing Crescent
Nov 2
First Quarter
Nov 10
Full
Nov 18
Last Quarter
Nov 25
New

Hourly Weather History & Observations

Time (CDT) Temp. Dew Point Humidity Pressure Visibility Wind Dir Wind Speed Gust Speed Precip Events Conditions
12:53 AM 37.9 °F 36.0 °F 93% 30.22 in 10.0 mi Calm Calm - N/A   Mostly Cloudy
1:53 AM 37.0 °F 35.1 °F 93% 30.22 in 10.0 mi Calm Calm - N/A   Mostly Cloudy
2:53 AM 37.9 °F 35.1 °F 89% 30.21 in 10.0 mi Calm Calm - N/A   Clear
3:53 AM 37.0 °F 35.1 °F 93% 30.20 in 10.0 mi Calm Calm - N/A   Clear
4:53 AM 34.0 °F 33.1 °F 96% 30.20 in 10.0 mi Calm Calm - N/A   Clear
5:53 AM 36.0 °F 34.0 °F 93% 30.21 in 10.0 mi Calm Calm - N/A   Clear
6:53 AM 33.1 °F 32.0 °F 96% 30.20 in 10.0 mi Calm Calm - N/A   Clear
7:53 AM 37.9 °F 35.1 °F 89% 30.21 in 10.0 mi Calm Calm - N/A   Clear
8:53 AM 48.9 °F 37.9 °F 66% 30.22 in 10.0 mi NE 3.5 mph - N/A   Clear
9:53 AM 57.0 °F 39.0 °F 51% 30.22 in 10.0 mi NNE 6.9 mph - N/A   Clear
10:53 AM 63.0 °F 43.0 °F 48% 30.22 in 10.0 mi Variable 3.5 mph - N/A   Clear
11:53 AM 66.0 °F 46.0 °F 48% 30.19 in 10.0 mi North 6.9 mph - N/A   Clear
12:53 PM 68.0 °F 45.0 °F 43% 30.17 in 10.0 mi NE 6.9 mph - N/A   Clear
1:53 PM 69.1 °F 44.1 °F 40% 30.14 in 10.0 mi NNW 6.9 mph - N/A   Clear
2:53 PM 70.0 °F 39.9 °F 33% 30.13 in 10.0 mi NNW 9.2 mph - N/A   Clear
3:53 PM 70.0 °F 39.0 °F 32% 30.12 in 10.0 mi North 8.1 mph - N/A   Clear
4:53 PM 69.1 °F 35.1 °F 29% 30.13 in 10.0 mi NNW 9.2 mph - N/A   Clear
5:53 PM 61.0 °F 37.0 °F 41% 30.14 in 10.0 mi NNW 6.9 mph - N/A   Clear
6:53 PM 55.0 °F 41.0 °F 59% 30.17 in 10.0 mi Calm Calm - N/A   Clear
7:53 PM 46.9 °F 42.1 °F 83% 30.18 in 10.0 mi Calm Calm - N/A   Clear
8:53 PM 46.0 °F 39.9 °F 79% 30.20 in 10.0 mi Calm Calm - N/A   Clear
9:53 PM 42.1 °F 37.9 °F 85% 30.21 in 10.0 mi Calm Calm - N/A   Clear
10:53 PM 42.1 °F 37.9 °F 85% 30.22 in 10.0 mi Calm Calm - N/A   Clear
11:53 PM 39.9 °F 37.9 °F 93% 30.22 in 10.0 mi Calm Calm - N/A   Clear